Weather History for KQIR - May, 2014

Change the Weather History Date:

Thursday, May 22, 2014

  Actual Average Record
Temperature  
Mean Temperature 91 °F -  
Max Temperature 105 °F - - ()
Min Temperature 77 °F - - ()
Cooling Degree Days 26    
Growing Degree Days 41 (Base 50)    
Moisture  
Dew Point 67 °F    
Average Humidity 52    
Maximum Humidity 91    
Minimum Humidity 19    
Precipitation  
Precipitation 0.00 in - - ()
Sea Level Pressure  
Sea Level Pressure 29.75 in    
Wind  
Wind Speed 5 mph ()    
Max Wind Speed 12 mph    
Max Gust Speed -    
Visibility 5.8 miles    
Events      
T = Trace of Precipitation, MM = Missing Value Source: Averaged Metar Reports

Daily Weather History Graph

Daily Weather History Graph

Search for Another Location

Airport or City:

Trip Planner

Search our weather history database for the weather conditions in past years. The results will help you decide how hot, cold, wet, or windy it might be!

Date:

Astronomy

May. 22, 2014 Rise Set
Actual Time 4:47 AM AST 6:15 PM AST
Civil Twilight 4:22 AM AST 6:40 PM AST
Nautical Twilight 3:52 AM AST 7:10 PM AST
Astronomical Twilight 3:21 AM AST 7:42 PM AST
Moon 12:10 AM AST (5/22) 12:16 PM AST (5/22)
Length of Visible Light 14h 18m
Length of Day
13h 28m
Last Quarter, 41% of the Moon is Illuminated
May 22
Last Quarter
May 28
New
Jun 5
First Quarter
Jun 13
Full
Jun 19
Last Quarter

Hourly Weather History & Observations

Time (AST) Temp. Heat Index Dew Point Humidity Pressure Visibility Wind Dir Wind Speed Gust Speed Precip Events Conditions
12:58 AM 82.2 °F 90.1 °F 76.5 °F 83% 29.73 in 6.2 mi East 5.8 mph - N/A   Clear
1:58 AM 82.8 °F 91.6 °F 77.0 °F 83% 29.73 in 6.2 mi East 8.1 mph - N/A   Clear
2:58 AM 81.9 °F 89.5 °F 76.6 °F 84% 29.73 in 6.2 mi SE 4.6 mph - N/A   Clear
3:58 AM 78.6 °F - 75.2 °F 89% 29.73 in 6.2 mi SE 8.1 mph - N/A   Clear
4:58 AM 77.9 °F - 75.2 °F 91% 29.75 in 3.7 mi South 2.3 mph - N/A   Clear
5:18 AM 78.8 °F - 75.2 °F 89% 29.75 in 2.5 mi SSE 1.2 mph - N/A   Clear
5:28 AM 78.8 °F - 75.2 °F 89% 29.75 in 3.1 mi SSE 3.5 mph - N/A   Clear
5:58 AM 81.5 °F 89.2 °F 77.4 °F 87% 29.76 in 5.0 mi Calm Calm - N/A   Clear
6:58 AM 82.8 °F 92.9 °F 78.4 °F 87% 29.80 in 5.0 mi WNW 2.3 mph - N/A   Haze
7:58 AM 87.8 °F 99.7 °F 77.0 °F 70% 29.81 in 6.2 mi WNW 4.6 mph - N/A   Clear
8:58 AM 93.6 °F 99.5 °F 69.6 °F 46% 29.81 in 6.2 mi South 4.6 mph - N/A   Clear
9:58 AM 97.2 °F 100.7 °F 66.0 °F 36% 29.81 in 6.2 mi SE 3.5 mph - N/A   Clear
10:58 AM 100.9 °F 99.6 °F 55.8 °F 22% 29.80 in 6.2 mi South 3.5 mph - N/A   Partly Cloudy
11:58 AM 102.2 °F 104.9 °F 63.5 °F 28% 29.78 in 6.2 mi North 2.3 mph - N/A   Mostly Cloudy
12:58 PM 103.5 °F 107.8 °F 65.7 °F 29% 29.75 in 6.2 mi Variable 2.3 mph - N/A   Clear
1:58 PM 104.7 °F 105.8 °F 59.4 °F 23% 29.73 in 6.2 mi North 9.2 mph - N/A   Clear
2:58 PM 105.1 °F 106.4 °F 59.7 °F 23% 29.73 in 6.2 mi NE 10.4 mph - N/A   Clear
3:58 PM 104.4 °F 102.8 °F 55.0 °F 19% 29.73 in 6.2 mi ENE 11.5 mph - N/A   Clear
4:58 PM 102.9 °F 101.4 °F 55.0 °F 20% 29.73 in 6.2 mi ENE 10.4 mph - N/A   Clear
5:58 PM 98.4 °F 100.7 °F 63.9 °F 32% 29.73 in 6.2 mi ENE 8.1 mph - N/A   Clear
6:58 PM 94.3 °F 98.7 °F 67.6 °F 42% 29.73 in 6.2 mi ENE 6.9 mph - N/A   Clear
7:58 PM 91.8 °F 95.1 °F 66.7 °F 44% 29.75 in 6.2 mi NE 8.1 mph - N/A   Clear
8:58 PM 90.9 °F 90.3 °F 60.1 °F 35% 29.75 in 6.2 mi NNE 5.8 mph - N/A   Clear
9:58 PM 89.4 °F 88.4 °F 58.1 °F 35% 29.75 in 6.2 mi North 2.3 mph - N/A   Clear
10:58 PM 87.6 °F 86.5 °F 57.7 °F 36% 29.73 in 6.2 mi North 2.3 mph - N/A   Clear
11:58 PM 83.7 °F 83.3 °F 58.5 °F 42% 29.70 in 6.2 mi NNW 2.3 mph - N/A   Clear